Terug naar catalogus

STARLINK-37285

ActiefCommunicatieSSO
NORAD 68626·PAYLOAD·🇺🇸 United States

Gelanceerd Apr 5, 2026 vanaf Vandenberg Space Force Base

Loading…

Volgende Passages (komende 24 uur)

TLE

VersSource: CelesTrak SupGP

Epoch: Sep 14, 2026, 23:20 UTC

1 68626C 26073AA  26257.97270833  .00080272  00000+0  24923-2 0  2574
2 68626  97.2847  96.9074 0001768  94.1899  93.2275 15.33391708    13

Volg STARLINK-37285 in realtime met AllMySat

Download on the App Store